Weather History for TJPS - December, 2012

Change the Weather History Date:

Wednesday, December 26, 2012

  Actual Average Record
Temperature  
Mean Temperature 78 °F -  
Max Temperature 87 °F 85 °F - (-1)
Min Temperature 68 °F 68 °F - (-1)
Cooling Degree Days 12    
Growing Degree Days 28 (Base 50)    
Moisture  
Dew Point 70 °F    
Average Humidity 80    
Maximum Humidity 100    
Minimum Humidity 55    
Precipitation  
Precipitation 0.00 in - - ()
Sea Level Pressure  
Sea Level Pressure 29.97 in    
Wind  
Wind Speed 4 mph (ESE)    
Max Wind Speed 14 mph    
Max Gust Speed 23 mph    
Visibility 9 miles    
Events      
Averages and records for this station are not official NWS values.
T = Trace of Precipitation, MM = Missing Value Source: NWS Daily Summary

Daily Weather History Graph

Daily Weather History Graph

Search for Another Location

Airport or City:

Trip Planner

Search our weather history database for the weather conditions in past years. The results will help you decide how hot, cold, wet, or windy it might be!

Date:

Astronomy

Dec. 26, 2012 Rise Set
Actual Time 6:55 AM AST 5:58 PM AST
Civil Twilight 6:31 AM AST 6:22 PM AST
Nautical Twilight 6:04 AM AST 6:49 PM AST
Astronomical Twilight 5:37 AM AST 7:16 PM AST
Moon 4:45 PM AST (12/26) 5:19 AM AST (12/26)
Length of Visible Light 11h 50m
Length of Day
11h 03m
Waxing Gibbous, 97% of the Moon is Illuminated
Dec 26
Waxing Gibbous
Dec 28
Full
Jan 4
Last Quarter
Jan 11
New
Jan 18
First Quarter

Hourly Weather History & Observations

Time (AST) Temp. Heat Index Dew Point Humidity Pressure Visibility Wind Dir Wind Speed Gust Speed Precip Events Conditions
12:50 AM 73.4 °F - 69.8 °F 88% 30.00 in 8.0 mi Calm Calm - N/A   Partly Cloudy
1:50 AM 71.6 °F - 69.8 °F 94% 30.00 in 8.0 mi NNE 5.8 mph - N/A   Partly Cloudy
2:50 AM 71.6 °F - 68.0 °F 88% 29.98 in 8.0 mi Calm Calm - N/A   Partly Cloudy
3:50 AM 69.8 °F - 69.8 °F 100% 29.97 in 8.0 mi NE 5.8 mph - N/A   Partly Cloudy
4:50 AM 69.8 °F - 66.2 °F 88% 29.96 in 8.0 mi Calm Calm - N/A   Partly Cloudy
5:50 AM 69.8 °F - 66.2 °F 88% 29.97 in 8.0 mi Calm Calm - N/A   Partly Cloudy
6:50 AM 68.0 °F - 66.2 °F 94% 30.00 in 10.0 mi Calm Calm - N/A   Partly Cloudy
9:50 AM 84.2 °F 88.4 °F 69.8 °F 62% 30.00 in 10.0 mi East 5.8 mph - N/A   Partly Cloudy
11:50 AM 87.8 °F 92.6 °F 69.8 °F 55% 30.00 in 10.0 mi SSE 11.5 mph 17.3 mph N/A   Partly Cloudy
1:50 PM 87.8 °F 93.8 °F 71.6 °F 58% 29.95 in 10.0 mi SSE 11.5 mph 17.3 mph N/A   Partly Cloudy
2:50 PM 87.8 °F 93.8 °F 71.6 °F 58% 29.93 in 10.0 mi SE 13.8 mph - N/A   Partly Cloudy
3:50 PM 87.8 °F 95.6 °F 73.4 °F 62% 29.93 in 10.0 mi South 11.5 mph 23.0 mph N/A   Partly Cloudy
4:50 PM 84.2 °F 90.9 °F 73.4 °F 70% 29.93 in 10.0 mi SE 11.5 mph - N/A   Scattered Clouds
6:50 PM 78.8 °F - 71.6 °F 78% 29.95 in 10.0 mi Calm Calm - N/A   Partly Cloudy
7:50 PM 75.2 °F - 69.8 °F 83% 29.97 in 10.0 mi Calm Calm - N/A   Partly Cloudy
8:50 PM 73.4 °F - 69.8 °F 88% 29.98 in 8.0 mi NE 5.8 mph - N/A   Partly Cloudy
9:50 PM 73.4 °F - 69.8 °F 88% 30.00 in 8.0 mi Calm Calm - N/A   Partly Cloudy
10:50 PM 71.6 °F - 68.0 °F 88% 30.00 in 10.0 mi Calm Calm - N/A   Clear
11:50 PM 71.6 °F - 68.0 °F 88% 30.00 in 10.0 mi Calm Calm - N/A   Clear